Regional Weather Roundup
Issued by NWS

Home | Current Version | Previous Version | Graphics & Text | Print | Product List | Glossary On
Versions: 1 2 3 4 5 6 7 8 9 10 11 12 13 14 15 16 17 18 19 20 21 22 23 24 25 26 27 28 29 30 31 32 33 34 35 36 37 38 39 40 41 42 43 44 45 46 47 48
000
ASUS45 KSLC 251010
RWRUT

UTAH REGIONAL WEATHER ROUNDUP
NATIONAL WEATHER SERVICE SALT LAKE CITY UT
400 AM MDT SAT APR 25 2015

UTZ001>011-023>025-251100-

NORTHERN UTAH

CITY           SKY/WX    TMP DP  RH WIND       PRES   REMARKS
BRIGHAM CITY   CLOUDY    44  40  87 CALM      29.81F
HILL AFB       MOCLDY    43  41  93 S7        29.82S
LOGAN          CLOUDY    41  37  86 E6        29.81S
OGDEN          CLOUDY    45  38  76 S9        29.81S
PROVO AIRPORT  MOCLDY    45  37  76 N5        29.84R
SALT LAKE CITY MOCLDY    47  38  71 W3        29.83R
VERNAL         CLOUDY    46  38  73 W5        29.76S
WENDOVER       CLOUDY    45  28  53 SW6       29.82S
HEBER CITY     PTCLDY    37  34  87 CALM      29.84R
WEST JORDAN    PTCLDY    45  45 100 CALM      29.84S

$$

UTZ012>022-026-027-251100-

SOUTHERN/CENTRAL UTAH

CITY           SKY/WX    TMP DP  RH WIND       PRES   REMARKS
BLANDING       CLOUDY    46  36  68 S10       29.94S
BRYCE CANYON   CLOUDY    35  33  92 NE3       29.90F
CEDAR CITY     CLOUDY    43  39  86 SW6       29.85F
DELTA          CLOUDY    45  42  91 SE6       29.83S
HANKSVILLE     CLOUDY    52  43  71 NW9       29.83R
MILFORD        MOCLDY    44  31  60 S12       29.82F
MOAB/CYNLANDS  CLOUDY    56  36  47 W23       29.75S
PRICE          CLOUDY    43  34  70 N5        29.81S
ST GEORGE      PTSUNNY   52  46  82 NW6       29.84S
KANAB          CLOUDY    46  45  93 N5        29.90F

$$

REGIONAL REPORTS     COLORADO/ARIZONA

CITY           SKY/WX    TMP DP  RH WIND       PRES   REMARKS
CRAIG, CO      CLOUDY    42  32  67 N3        29.77S
GRAND JUNCTION CLOUDY    50  32  50 NE9       29.77R
RIFLE          CLOUDY    40  34  79 S5        29.81R
MONTROSE       CLOUDY    47  32  56 CALM      29.86S
CORTEZ         CLOUDY    47  38  71 S8        29.91S
PAGE, AZ       CLOUDY    57  36  45 SW7       29.83R
GRAND CANYON   CLOUDY    42  36  79 SW8       29.96S
KINGMAN        CLEAR     49  38  65 S7        29.85F
FLAGSTAFF      CLOUDY    40  39  97 SW10      29.97F WCI  33

$$

REGIONAL REPORTS    NEVADA/IDAHO/WYOMING

CITY           SKY/WX    TMP DP  RH WIND       PRES   REMARKS
LAS VEGAS, NV  PTCLDY    60  37  42 S16       29.73S
ELY            CLOUDY    35  34  96 S12       29.85F WCI  27
ELKO           PTCLDY    37  34  89 NW5       29.81F WCI  33
POCATELLO, ID  CLOUDY    43  32  65 SW10      29.79S
BURLEY         PTCLDY    38  31  76 SW9       29.77S WCI  31
EVANSTON, WY   MOCLDY    33  32  96 SW13      29.81R WCI  24
ROCK SPRINGS   CLOUDY    37  35  92 SW14      29.77S WCI  28

$$


USA.gov is the U.S. government's official web portal to all federal, state and local government web resources and services.